Location: Mound City (historical)
(34.0564°N, 117.2656°W)
Time: 00:01:29
(UTC+00:00)

Daily predictions for brighter satellites

Satellite Brightness Start Highest point End
(mag) Time Altitude Azimuth Time Altitude Azimuth Time Altitude Azimuth
Cosmos 1328 Rocket 4.2 03:14:54 10° SSE 03:18:49 35° E 03:22:45 10° NNE
Cosmos 1570 Rocket 4.5 03:15:19 10° N 03:20:20 45° ENE 03:25:22 10° SE
Cosmos 1486 Rocket 4.5 03:16:53 10° S 03:21:48 40° ESE 03:26:44 10° NNE
Cosmos 2369 4.5 03:17:05 10° SSE 03:21:52 29° ESE 03:26:40 10° NE
Cosmos 1814 Rocket 4.0 03:17:42 10° N 03:22:49 66° ENE 03:27:54 10° SSE
MetOp-A 3.9 03:22:25 10° SE 03:26:16 41° ENE 03:29:56 10° N
Cosmos 841 Rocket 4.2 03:23:25 10° NNW 03:28:26 54° WSW 03:33:26 10° S
Cosmos 1697 Rocket 2.7 03:24:25 10° S 03:30:01 66° ESE 03:35:38 10° NNE
CZ-4B R/B 2.7 03:28:53 10° NE 03:31:12 19° E 03:33:28 10° SE
Cosmos 2098 Rocket 3.6 03:30:08 10° NNW 03:32:56 37° W 03:35:37 10° SSW
USA 186 1.0 03:31:36 10° S 03:34:02 83° WSW 03:36:25 10° NNW
Gbstr 26 Del rocket 4.2 03:27:39 10° NW 03:35:10 84° SW 03:41:08 11° SE
deb Chang Zheng 4 4.1 03:31:45 10° S 03:35:48 57° WSW 03:39:52 10° NNW
Cosmos 2360 4.2 03:31:15 10° SSW 03:36:53 72° ESE 03:42:32 10° NNE
CSL-04 Debris 4.2 03:31:36 10° SSE 03:37:02 86° WSW 03:42:28 10° NNW
OBJECT-B 1.7 03:34:38 10° S 03:37:23 41° W 03:40:10 10° NNW
Cosmos 1151 Rocket 3.2 03:33:49 10° S 03:38:04 77° W 03:42:21 10° N
Cosmos 1340 3.5 03:40:56 10° SSE 03:44:11 30° E 03:47:29 10° NNE
COBE Rocket 4.1 03:40:07 10° SSE 03:45:10 63° ENE 03:50:07 10° N
CZ-4 R/B 3.8 03:42:36 10° SSW 03:45:43 22° W 03:48:53 10° NW
Cosmos 2297 Rocket 2.2 03:40:08 10° NNW 03:45:47 71° ENE 03:51:08 11° SSE
ATLAS 2AS CENTAUR R/B 3.3 03:39:24 10° S 03:46:40 44° ESE 03:53:53 10° NE
Resurs 1-3 3.6 03:46:22 10° SSE 03:50:42 66° ENE 03:55:02 10° N
Cosmos 1503 Rocket 4.4 03:46:14 10° S 03:51:09 43° ESE 03:56:09 10° NNE
SJ-6B 3.1 03:47:43 10° S 03:51:31 66° W 03:55:17 10° NNW
NOSS 3-4 (A) 4.3 03:46:23 10° SW 03:51:50 49° NW 03:57:36 10° NNE
NOSS 3-4 (C) 4.3 03:46:24 10° SW 03:51:53 50° NW 03:57:41 10° NNE
Cosmos 1666 Rocket 3.5 03:47:34 10° N 03:52:00 82° E 03:56:26 10° S
H-2A R/B 3.0 03:48:59 10° S 03:53:21 65° W 03:57:37 10° NNW
SJ 16-02 2.4 03:52:33 15° SE 03:55:03 25° E 03:58:37 10° NE
Cosmos 1315 Rocket 2.8 03:51:49 10° N 03:55:52 88° ENE 03:59:46 11° S
Cosmos 1633 Rocket 3.0 03:55:31 10° N 03:59:54 81° E 04:03:56 12° S
SL-16 R/B 4.1 04:00:33 11° E 04:00:33 11° E 04:01:49 10° ENE
ATLAS 5 CENTAUR R/B 3.5 03:48:26 10° W 04:01:49 26° SSW 04:06:10 13° SSE
Cosmos 1072 Rocket 4.5 03:57:36 10° S 04:03:34 60° E 04:09:34 10° NNE
Cosmos 1743 3.7 04:00:32 10° NNE 04:03:52 29° E 04:05:10 23° ESE
SPOT 1/Viking Rocket 4.2 04:02:44 19° SE 04:05:57 39° ENE 04:10:44 10° N
Cosmos 1470 Rocket 3.5 04:07:20 10° N 04:11:37 61° E 04:14:11 23° SSE
Meteor 1-27 Rocket 3.8 04:09:51 10° S 04:15:35 88° E 04:21:28 10° N
OAO 3 Rocket 3.2 04:11:10 10° W 04:16:05 87° N 04:19:18 22° E
DASH 4.0 04:01:47 10° W 04:16:29 42° SSW 04:18:48 24° SSE
Resurs 01 Rocket 1.6 04:16:57 25° SSE 04:19:24 65° ENE 04:23:47 10° N
Cosmos 1515 Rocket 3.5 04:15:12 10° S 04:19:32 84° W 04:23:56 10° N
Cosmos 2278 3.9 04:14:54 10° S 04:20:18 50° ESE 04:25:46 10° NNE
NOSS 3-2 (C) 4.5 04:13:11 10° NW 04:21:08 67° WSW 04:28:22 16° SSE
Ariane Rocket 3.2 04:20:59 26° SE 04:23:38 55° ENE 04:28:35 10° N
Terra 3.9 04:23:27 11° ENE 04:24:20 12° ENE 04:26:04 10° NE
Cosmos 2219 3.1 04:19:54 10° NNW 04:25:32 90° WSW 04:28:56 25° SSE
CENTAUR R/B 4.2 04:17:36 10° NW 04:25:38 43° WSW 04:33:57 10° S
Cosmos 921 Rocket 3.9 04:24:21 10° N 04:28:29 35° ENE 04:29:36 31° ESE
Landsat 7 4.3 04:26:48 15° S 04:30:33 57° W 04:35:12 10° NNW
Cosmos 2034 Rocket 4.0 04:27:22 18° S 04:32:05 65° E 04:38:20 10° NNE
Cosmos 2082 4.0 04:26:39 10° N 04:32:06 49° ENE 04:34:23 31° ESE
CARTOSAT-1 4.2 04:31:39 33° ESE 04:32:38 38° ENE 04:36:39 10° N
Cosmos 2263 Rocket 3.5 04:29:40 10° N 04:34:10 24° ENE 04:35:57 21° E
Meteor 1-11 Rocket 4.0 04:30:35 10° NNW 04:36:31 72° W 04:40:53 19° S
Cosmos 2228 Rocket 3.6 04:36:11 38° ESE 04:37:00 42° E 04:41:18 10° NNE
Okean 1 3.2 04:37:50 46° SSE 04:38:48 65° E 04:42:47 10° NNE
Cosmos 1869 Rocket 4.4 04:35:57 10° NNE 04:39:59 32° E 04:40:21 32° E
Cosmos 1184 Rocket 4.0 04:39:40 19° SW 04:41:20 37° W 04:44:10 10° N
Cosmos 1536 3.1 04:38:56 10° NNW 04:42:55 65° W 04:44:32 34° SSW
RESURS DK-1 2.4 04:40:29 14° SSW 04:44:02 80° WNW 04:48:10 10° NNE
ASTRO E2 3.5 04:42:52 10° W 04:46:10 35° SSW 04:46:10 35° SSW
SL-4 R/B 2.2 04:44:06 10° NW 04:48:35 70° NE 04:49:24 54° ESE
BREEZE-M DEB (TANK) 4.4 04:45:51 10° WNW 04:49:21 37° SW 04:51:26 28° S
USA 245 4.4 04:50:03 39° SE 04:52:11 65° ENE 04:58:25 10° N
Cosmos 2227 Rocket 3.1 04:47:34 10° NW 04:52:55 44° WSW 04:56:08 22° SSW
NOSS 2-1 (C) 4.4 04:55:02 26° NE 04:55:02 26° NE 04:56:34 10° NE
Cosmos 1980 Rocket 3.2 04:49:51 10° SW 04:55:12 45° WNW 05:00:38 10° N
Cosmos 1777 Rocket 3.9 04:53:11 23° SSW 04:56:33 88° WNW 05:01:48 10° NNE
Spot 2 Rocket 3.9 04:56:35 40° E 04:57:20 43° ENE 05:02:04 10° N
Cosmos 1707 Rocket 4.4 04:59:41 35° ENE 04:59:41 35° ENE 05:03:03 10° NNE
SPOT 3 Rocket 3.4 04:59:23 50° SSE 05:00:45 79° ENE 05:05:54 10° N
ARIANE 5 R/B 4.2 05:01:18 21° ENE 05:01:18 21° ENE 05:04:26 10° NNE
CZ-4B R/B 4.3 05:00:50 10° NW 05:02:35 14° WNW 05:04:18 10° WSW
Cosmos 1809 Rocket 4.4 04:57:05 10° N 05:03:16 90° WSW 05:05:42 39° S
Cosmos 389 Rocket 3.5 05:00:17 10° NNW 05:03:35 39° W 05:04:00 37° WSW
NOSS 2-1 (D) 4.3 05:05:15 31° NNE 05:05:15 31° NNE 05:07:00 10° NNE
Cosmos 2322 Rocket 3.1 05:04:59 31° E 05:04:59 31° E 05:08:53 10° NE
Cosmos 773 Rocket 4.0 05:00:04 10° N 05:05:13 60° ENE 05:05:56 54° ESE
Meteor 2-4 Rocket 3.7 05:10:31 53° SSE 05:11:42 67° E 05:17:20 10° NNE
Cosmos 1975 3.9 05:09:08 10° N 05:11:59 34° NE 05:11:59 34° NE
Cosmos 44 Rocket 4.5 05:10:45 10° N 05:14:47 28° NE 05:14:58 27° ENE
USA 215 4.3 05:09:30 10° ENE 05:12:52 26° E 05:12:52 26° E
Helios 1A Rocket 3.0 05:19:41 69° N 05:19:41 69° N 05:23:13 10° NNW
Cosmos 158 Rocket 4.2 05:23:19 10° N 05:28:23 56° ENE 05:28:23 56° ENE
CZ-3 Stage 3 3.4 05:19:52 10° W 05:28:02 46° SW 05:28:02 46° SW
USA 81 3.9 05:32:10 80° E 05:32:13 80° E 05:37:30 10° N
ERS-1 Rocket 2.8 05:32:27 83° ENE 05:32:27 83° ENE 05:37:31 10° N
SJ 16-02 3.6 05:30:05 10° WSW 05:33:29 22° WNW 05:36:54 10° NNW
Cosmos 1733 Rocket 4.2 05:30:07 10° N 05:33:09 34° NE 05:33:09 34° NE
Cosmos 1092 Rocket 3.8 05:28:12 10° N 05:34:22 89° W 05:35:23 65° S
Cosmos 1634 Rocket 3.9 05:33:08 54° SSW 05:34:41 84° W 05:40:54 10° N
Cosmos 2227 4.4 05:31:51 10° NNW 05:37:31 56° ENE 05:37:41 56° ENE
ATLAS 2AS CENTAUR R/B 4.3 05:30:31 10° WSW 05:37:42 39° NW 05:44:46 10° NNE
CZ-2C R/B 4.2 05:33:47 10° N 05:38:30 60° WNW 05:38:58 57° WSW
Cosmos 2142 Rocket 4.4 05:39:20 66° ESE 05:39:48 68° E 05:46:09 10° NNE
Meteor 2-15 Rocket 4.3 05:40:16 67° ESE 05:40:24 68° E 05:46:25 10° NNE
Cosmos 1862 Rocket 4.4 05:43:04 45° NNE 05:43:04 45° NNE 05:46:13 10° N
SL-16 R/B 2.3 05:42:19 58° SW 05:43:23 74° WNW 05:49:04 10° NNE
Cosmos 2237 4.2 05:46:08 70° ENE 05:46:08 70° ENE 05:51:23 10° NNE
Cosmos 1346 Rocket 4.0 05:47:19 40° NNW 05:47:19 40° NNW 05:50:12 10° N
Cosmos 1538 Rocket 4.4 05:41:27 10° N 05:46:01 53° NE 05:46:01 53° NE
Cosmos 2026 Rocket 4.1 05:52:59 10° NNW 05:59:05 65° W 05:59:49 60° SW
ISS -0.8 05:57:53 10° NNW 05:58:52 17° NNW 05:58:52 17° NNW
Terra 2.5 06:02:20 52° NW 06:02:20 52° NW 06:06:13 10° NNW
SPOT 5 3.9 06:01:47 42° W 06:01:51 42° W 06:06:47 10° NNW
Cosmos 2360 Rocket 2.6 06:09:14 54° NE 06:09:14 54° NE 06:13:34 10° NNE
ATLAS 3B R/B 3.1 06:01:09 10° NNW 06:08:32 60° ENE 06:09:35 55° E
Meteor 1-13 Rocket 4.5 06:16:36 63° N 06:16:36 63° N 06:21:13 10° N
Cosmos 2263 Rocket 3.2 06:13:02 10° NW 06:17:39 37° W 06:17:39 37° W
Cosmos 1898 Rocket 4.3 06:32:56 50° NNW 06:32:56 50° NNW 06:37:00 10° N
Cosmos 2266 Rocket 4.3 06:28:58 10° N 06:34:11 59° NE 06:34:11 59° NE
H-2A ROCKET BODY 4.1 05:59:41 10° W 06:37:12 52° SSW 06:38:16 51° SSW
ATLAS CENTAUR R/B 3.8 06:35:04 10° N 06:37:47 20° NNE 06:37:47 20° NNE
Cosmos 2322 Rocket 3.8 06:46:43 26° W 06:47:54 28° WNW 06:52:42 10° N
Cosmos 2333 Rocket 3.0 06:55:08 47° N 06:55:08 47° N 06:59:08 10° NNE
Cosmos 1844 Rocket 3.5 06:52:15 10° NNW 06:56:11 47° NNW 06:56:11 47° NNW
USA 215 3.7 06:52:03 10° NE 06:58:26 57° NW 07:00:09 45° W
ADEOS Rocket 4.2 07:00:12 31° NE 07:00:12 31° NE 07:04:28 10° N
Cosmos 2219 Rocket 3.2 07:13:11 43° N 07:13:11 43° N 07:16:55 10° NNE
Cosmos 2237 Rocket 3.7 07:43:57 29° NE 07:43:57 29° NE 07:46:54 10° NE
COSMOS 2428 3.8 07:47:44 41° NNW 07:47:44 41° NNW 07:51:46 10° N
ATLAS 3B R/B 4.4 07:52:51 10° NW 07:56:50 23° W 07:56:50 23° W
CZ-4C R/B 3.3 07:51:16 10° NNW 07:58:55 65° ENE 07:59:52 61° E
NOSS 3-1 (A) 4.5 07:56:14 10° NNW 08:04:01 61° ENE 08:05:48 52° E
NOSS 3-1 (C) 4.1 08:03:07 10° NNW 08:10:48 78° W 08:10:48 78° W
ATLAS CENTAUR R/B 4.4 08:13:18 10° NW 08:13:47 12° NW 08:13:47 12° NW
Cosmos 2278 Rocket 3.2 08:13:30 10° N 08:17:53 43° NNE 08:17:53 43° NNE
Lacrosse 5 3.7 08:22:52 26° NE 08:22:52 26° NE 08:25:05 10° NE
SL-16 R/B 3.6 08:31:39 30° ENE 08:31:39 30° ENE 08:35:10 10° NE
Meteor 2-10 Rocket 4.5 08:38:05 10° N 08:42:26 46° NE 08:42:26 46° NE
SL-16 R/B 4.3 08:46:14 18° ESE 08:49:03 25° ENE 08:53:58 10° NNE
Meteor 1-24 Rocket 4.4 08:56:21 49° ENE 08:56:21 49° ENE 09:00:47 10° NNE
COSMOS 2455 3.7 09:01:17 41° E 09:01:17 41° E 09:06:10 10° NE
Cosmos 2315 Rocket 4.3 09:02:46 58° NW 09:02:46 58° NW 09:08:20 10° N
Cosmos 1709 Rocket 4.2 08:57:39 10° N 09:02:43 60° NW 09:02:43 60° NW
CZ-2D R/B 2.8 09:03:07 10° NNE 09:07:28 49° ENE 09:07:28 49° ENE
Lacrosse 5 rocket 3.6 09:12:11 22° NNE 09:12:11 22° NNE 09:13:43 10° NNE
USA 267 3.4 09:13:29 59° WNW 09:13:29 59° WNW 09:18:50 10° NW
Meteor 2-5 Rocket 4.0 09:22:35 62° NW 09:22:35 62° NW 09:27:32 10° N
Cosmos 2237 Rocket 3.9 09:25:45 22° WNW 09:25:45 22° WNW 09:30:05 10° N
USA 229 DEB 4.1 09:20:50 10° NW 09:27:29 53° W 09:27:29 53° W
USA 229 4.1 09:20:56 10° NW 09:27:37 54° W 09:27:37 54° W
CZ-4 R/B 4.5 09:25:41 10° NNE 09:29:07 50° N 09:29:07 50° N
Resurs 1-4 Rocket 2.2 09:27:44 10° N 09:32:24 69° N 09:32:24 69° N
Nadezhda 1 Rocket 4.2 09:38:22 57° SE 09:39:24 66° E 09:45:39 10° NNE
NOSS 3-3 (A) 4.2 09:39:55 49° ESE 09:39:58 49° ESE 09:45:43 10° NE
NOSS 3-3 (C) 4.2 09:40:00 48° ESE 09:40:05 48° ESE 09:45:48 10° NE
IDEFIX/ARIANE 42P 3.0 09:39:34 10° NNE 09:44:43 52° E 09:45:05 51° ESE
Cosmos 1943 Rocket 2.3 09:39:54 10° NNW 09:45:34 71° ENE 09:46:34 58° SE
ADEOS II 2.1 09:40:58 10° NNE 09:46:12 67° ESE 09:46:18 67° ESE
CZ-4C R/B 4.3 09:40:45 10° NW 09:44:59 25° W 09:44:59 25° W
MOS 1 Rocket 3.7 09:49:39 53° ENE 09:49:39 53° ENE 09:53:36 10° N
Cosmos 2297 4.0 09:47:45 10° NNW 09:53:28 63° ENE 09:55:48 35° SE
Cosmos 2278 Rocket 4.3 09:58:51 10° WNW 09:59:42 13° WNW 09:59:42 13° WNW
Lacrosse 5 3.7 10:02:03 19° WNW 10:03:22 20° NW 10:07:10 10° N
Cosmos 1455 3.8 10:00:30 10° NNW 10:02:19 27° NNW 10:02:19 27° NNW
NPP 4.1 10:03:46 10° N 10:08:53 45° WNW 10:09:05 45° WNW
Cosmos 1271 Rocket 3.1 10:09:51 10° N 10:13:07 61° NNE 10:13:07 61° NNE
SL-16 R/B 3.4 10:13:31 26° WNW 10:14:10 26° WNW 10:18:53 10° N
Cosmos 2369 Rocket 3.2 10:10:40 10° N 10:16:01 45° ENE 10:21:21 10° SE
AQUA 4.4 10:14:56 10° N 10:19:20 42° WNW 10:19:20 42° WNW
Cosmos 2154 Rocket 3.9 10:13:07 10° N 10:19:26 75° W 10:21:27 45° SSW
Meteor 1-21 Rocket 4.2 10:17:56 49° S 10:19:33 81° E 10:25:08 10° N
Cosmos 2228 3.2 10:17:30 10° N 10:21:51 68° E 10:22:40 53° SE
SL-16 R/B 2.8 10:31:19 42° SW 10:32:17 45° W 10:38:13 10° NNW
Cosmos 1603 3.6 10:35:48 45° SSW 10:37:35 79° WNW 10:43:16 10° NNE
Cosmos 1371 Rocket 4.3 10:35:37 33° S 10:37:49 60° ESE 10:42:54 10° NNE
GPS 2-04 Rocket1 2.5 10:39:11 65° E 10:39:11 65° E 10:42:16 10° E
Cosmos 1328 3.6 10:41:59 65° SSW 10:42:29 80° W 10:46:29 10° N
Cosmos 1140 Rocket 4.3 10:40:56 10° N 10:46:03 52° ENE 10:51:08 10° SSE
COSMOS 2455 4.2 10:44:25 22° W 10:46:32 27° NW 10:51:34 10° N
CZ-2D R/B 3.9 10:44:43 10° NNW 10:47:51 16° WNW 10:48:47 15° WNW
SeaSat 1 4.4 10:44:46 10° NE 10:48:34 22° ESE 10:52:21 10° SSE
DNEPR-1 R/B 4.0 10:50:23 37° W 10:51:15 43° WNW 10:55:29 10° NNE
Helios 1B rocket 2.6 10:47:42 10° NNE 10:51:46 69° ESE 10:53:29 33° S
MOS 1-B Rocket 4.4 10:48:06 10° SSE 10:53:37 59° ENE 10:59:11 10° N
Cosmos 1825 4.4 10:51:41 10° SE 10:54:35 22° E 10:57:30 10° NE
Cosmos 1606 Rocket 3.5 10:54:58 10° NNW 10:59:20 66° W 11:01:19 31° SSW
Cosmos 1241 Rocket 4.4 10:56:54 29° SSW 11:00:14 84° WNW 11:06:28 10° NNE
OAO 2 Rocket 3.2 11:00:43 29° WSW 11:03:14 88° S 11:08:11 10° E
Cosmos 2218 Rocket 4.1 10:58:11 10° N 11:04:27 78° E 11:10:47 10° S
Helios 1A 3.9 11:04:40 28° W 11:04:40 28° W 11:08:17 10° NW
Cosmos 1943 4.0 11:05:15 26° WSW 11:07:42 37° WNW 11:12:58 10° N
Lacrosse 4 Rocket 1.8 11:07:58 23° S 11:10:33 60° ESE 11:14:44 10° NNE
Cosmos 1408 2.4 11:09:13 30° S 11:10:53 83° W 11:14:31 10° N
Cosmos 1624 Rocket 4.0 11:07:53 26° SSW 11:10:54 70° WNW 11:16:13 10° NNE
SEDSat Delta rocket 4.1 11:08:03 24° WSW 11:12:18 66° S 11:18:57 10° E
Meteor 1-11 4.2 11:09:14 19° SSW 11:13:31 77° W 11:19:19 10° N
Cosmos 2181 Rocket 4.1 11:10:08 21° SSW 11:14:23 61° W 11:20:29 10° N
Cosmos 1892 2.6 11:12:44 24° S 11:14:55 87° W 11:18:43 10° N
Cosmos 1959 Rocket 4.4 11:10:46 10° N 11:17:01 86° W 11:23:09 10° S
ARIANE 5 R/B 2.9 11:12:30 10° NNE 11:17:28 60° E 11:22:24 10° S
IRS-1C 4.2 11:13:24 10° NNE 11:18:45 77° ESE 11:23:53 11° S
Meteor 2-1 Rocket 4.4 11:14:27 10° NNW 11:19:56 50° W 11:24:41 13° SSW
Okean 1-7 Rocket 3.7 11:16:36 13° S 11:20:32 77° E 11:24:56 10° N
CBERS-1 4.4 11:15:59 10° N 11:20:54 48° WNW 11:24:04 21° SW
Cosmos 2056 Rocket 3.7 11:19:47 23° SW 11:22:52 53° WNW 11:28:00 10° N
OAO 3 Copernicus 4.4 11:20:38 23° WSW 11:23:39 64° SSE 11:28:38 10° E
IDEFIX/ARIANE 42P 4.3 11:20:34 10° NNW 11:23:48 17° WNW 11:25:53 13° W
ADEOS II 4.1 11:22:55 10° NW 11:25:14 13° WNW 11:27:14 11° W
Cosmos 864 Rocket 4.4 11:20:27 10° N 11:26:34 71° W 11:32:38 10° S
Cosmos 1943 Rocket 4.0 11:26:28 10° WNW 11:28:00 12° W 11:28:00 12° W
ALOS 2.2 11:25:08 10° N 11:29:48 76° WNW 11:34:01 12° SSW
FENGYUN 3A 3.7 11:24:55 10° N 11:30:15 66° WNW 11:35:03 13° SSW
ATLAS 3B CENTAUR R/B 3.3 11:31:03 12° S 11:33:18 18° SSE 11:36:59 10° ESE
Cosmos 1602 Rocket 4.2 11:29:49 10° S 11:34:11 57° E 11:38:32 10° NNE
Cosmos 2263 4.5 11:32:40 10° NW 11:38:05 46° WSW 11:43:30 10° S
Cosmos 1726 Rocket 4.5 11:34:25 10° NNW 11:38:14 29° W 11:41:07 15° SW
Cosmos 1190 Rocket 4.0 11:36:32 10° NNW 11:41:50 73° WSW 11:47:06 10° S
Meteor 1-29 2.8 11:42:45 10° N 11:45:58 63° WNW 11:49:07 10° SSW
CZ-2C R/B 2.8 11:44:45 10° N 11:49:37 49° WNW 11:54:20 10° SSW
PAYLOAD A 4.3 11:48:39 10° N 11:53:10 44° WNW 11:57:49 10° SW
Spot 4 Rocket 4.3 11:49:31 10° NNE 11:54:39 70° ESE 11:59:45 10° S
